Location: Newark
(35.9031°N, 139.7175°E)
Time: 12:08:13
(UTC+00:00)

Transit 2A - Pass Details

Date: 26 May 2020
Orbit: 592 x 967 km, 66.7° (Epoch: 06 July)

Event Time Altitude Azimuth Distance (km) Brightness Sun altitude
Rises 15:11:55 0° 322° (NW) 3,590 10.0 -32.3°
Reaches altitude 10° 15:14:39 10° 313° (NW) 2,674 9.1 -32.2°
Enters shadow 15:17:51 25° 289° (WNW) 1,817 7.9 -32.1°
